Simultaneous Nadir Overpasses (SNOs) Predictions

Prediction of SNOs between NOAA-15 and METOP-C Satellite Orbit:

Table of predicted SNOs for the next 14.0 days since TLE Epoch: 2/12/2024
Index Date (NOAA-15) Time (NOAA-15) Lat,Lon (NOAA-15) SZA (NOAA-15 ) Date (METOP-C) Time (METOP-C) Lat,Lon (METOP-C) SZA (METOP-C ) Distance(km) Time Diff (sec)
1 02/25/2024 23:03:33 81.07,-127.65 91.62 02/25/2024 23:02:20 81.07,-127.66 91.59 0.21 73
2 02/25/2024 23:54:05 -81.07, 39.68 88.40 02/25/2024 23:53:02 -81.07, 39.62 88.44 1.04 63
3 02/26/2024 00:44:33 81.06,-152.80 91.60 02/26/2024 00:43:41 81.08,-152.78 91.59 1.47 52
4 02/26/2024 01:35:05 -81.07, 14.52 88.43 02/26/2024 01:34:23 -81.07, 14.51 88.43 0.99 42
5 02/26/2024 02:25:34 81.08,-178.33 91.56 02/26/2024 02:25:03 81.07,-178.27 91.55 1.23 31



Historial Predications of SNOs between NOAA-15 and METOP-C
